sat.trackr.live / text

‹ back to catalog

STARLINK-31403

NORAD 59186 · 2024-045J

PAYLOAD ACTIVE UNKNOWN

§ Identity

Operator
Country
US
Launch date
2024-03-10
Launch site
AFETR
Launch vehicle
Mass (kg)
RCS (m²)

Purposes: comms

External: N2YO · Heavens-Above · Gunter

§ Orbital elements

Epoch: 2026-05-24T15:34:44.100192Z

Period
94.27 min
Inclination
43.0064°
Eccentricity
0.0001681
Mean motion
15.27577924 rev/d
Perigee alt
481.9 km
Apogee alt
484.2 km
Semi-major
6,861.2 km
B*
-1.3015e-5
RAAN
2.1371°
Arg perigee
274.1671°
Mean anomaly
85.8988°
Rev number
12,496

§ Raw data

STARLINK-314031 59186U 24045J   26144.64912153 -.00000620  00000+0 -13015-4 0  99952 59186  43.0064   2.1371 0001681 274.1671  85.8988 15.27577924124963

JSON: /api/v1/satellites/59186 · /tle

For live sub-satellite position, see the globe view (requires WebGL).

§ Visibility from observer

Set your observer location to see the next 7 days of passes ≥ 10°. The values pass through the URL so the page stays shareable.

No JS? Fill the form by hand. The geolocation button needs JavaScript.